Location: Poughquag
(41.6090°N, 73.6820°W)
Time: 07:30:52
(UTC-04:00)

Envisat - Visible Passes

Search period start: 20 May 2018 00:00
Search period end: 30 May 2018 00:00
Orbit: 764 x 766 km, 98.2° (Epoch: 20 May)

Date Brightness Start Highest point End Pass type
(mag) Time Alt. Az. Time Alt. Az. Time Alt. Az.
21 May 5.6 21:35:25 10° SW 21:38:21 15° W 21:41:18 10° NW visible
22 May 4.6 20:56:44 10° SSW 21:01:18 34° W 21:05:55 10° NNW visible
24 May 5.5 21:23:28 10° SW 21:27:05 19° W 21:30:43 10° NW visible
25 May 4.2 20:45:18 10° S 20:50:06 43° W 20:54:56 10° NNW visible
26 May 5.9 21:51:55 10° W 21:52:58 11° W 21:54:01 10° WNW visible
27 May 5.2 21:11:44 10° SSW 21:15:50 25° W 21:19:57 10° NW visible
29 May 5.7 21:39:06 10° WSW 21:41:40 14° W 21:44:15 10° WNW visible
